Tracking 25734 objects as of 27-May-2022
HD Live streaming from Space Station
objects crossing your sky now

DELTA 1 DEB

Track DELTA 1 DEB now!
10-day predictions


NORAD ID: 10227
Int'l Code: 1977-065BE
Perigee: 570.0 km
Apogee: 1,633.5 km
Inclination: 29.0 °
Period: 107.1 minutes
Semi major axis: 7472 km
RCS: 0.265 m2 (medium)
Launch date: July 14, 1977
Source: United States (US)
Launch site: AIR FORCE EASTERN TEST RANGE (AFETR)

Note: This is SATELLITE DEBRIS
aabbcc
Your satellite tracking list
Your tracking list is empty




NASA's NSSDC Master Catalog

Two Line Element Set (TLE):
1 10227U 77065BE  22146.83381932  .00000929  00000-0  29039-3 0  9995
2 10227  28.9560 334.0737 0711550 252.5114  99.6491 13.43945066174450
Source of the keplerian elements: AFSPC